Weather History for EIDW - July, 2013

Change the Weather History Date:

Tuesday, July 30, 2013

  Actual Average Record
Temperature  
Mean Temperature 60 °F -  
Max Temperature 69 °F 65 °F 75 °F (2001)
Min Temperature 52 °F 52 °F 43 °F (2015)
Degree Days  
Heating Degree Days 4    
Growing Degree Days 10 (Base 50)    
Moisture  
Dew Point 51 °F    
Average Humidity 70    
Maximum Humidity 94    
Minimum Humidity 38    
Precipitation  
Precipitation 0.00 in 0.09 in - ()
Sea Level Pressure  
Sea Level Pressure 29.81 in    
Wind  
Wind Speed 10 mph ()    
Max Wind Speed 22 mph    
Max Gust Speed -    
Visibility 6.5 miles    
Events Rain    
Averages and records for this station are not official NWS values.
T = Trace of Precipitation, MM = Missing Value Source: Averaged Metar Reports

Daily Weather History Graph

Daily Weather History Graph

Search for Another Location

Airport or City:

Trip Planner

Search our weather history database for the weather conditions in past years. The results will help you decide how hot, cold, wet, or windy it might be!

Date:

Astronomy

Jul. 30, 2013 Rise Set
Actual Time 5:37 AM IST 9:24 PM IST
Civil Twilight 4:53 AM IST 10:07 PM IST
Nautical Twilight 3:51 AM IST 11:09 PM IST
Astronomical Twilight 1:46 AM IST 1:00 AM IST
Moon No Moon Rise 3:25 PM IST (7/30)
Length of Visible Light 17h 14m
Length of Day
15h 46m
Last Quarter, 43% of the Moon is Illuminated
Jul 30
Last Quarter
Aug 6
New
Aug 14
First Quarter
Aug 21
Full
Aug 28
Last Quarter

Hourly Weather History & Observations

Time (IST) Temp. Dew Point Humidity Pressure Visibility Wind Dir Wind Speed Gust Speed Precip Events Conditions
12:00 AM 57.2 °F 50.0 °F 77% 29.83 in 6.2 mi SW 5.8 mph - N/A   Mostly Cloudy
12:30 AM 57.2 °F 51.8 °F 82% 29.83 in 6.2 mi SW 8.1 mph - N/A   Mostly Cloudy
1:00 AM 57 °F 51 °F 73% 29.84 in 19 mi SW 8.9 mph - -   Partly Cloudy
1:00 AM 57.2 °F 51.8 °F 82% 29.83 in 6.2 mi SW 8.1 mph - N/A   Mostly Cloudy
1:30 AM 57.2 °F 50.0 °F 77% 29.83 in 6.2 mi WSW 10.4 mph - N/A   Scattered Clouds
2:00 AM 55.4 °F 50.0 °F 82% 29.83 in - WSW 13.8 mph - N/A   Clear
2:30 AM 55.4 °F 50.0 °F 82% 29.83 in - SW 6.9 mph - N/A   Clear
3:00 AM 55.4 °F 50.0 °F 82% 29.83 in - SW 11.5 mph - N/A   Clear
3:30 AM 53.6 °F 50.0 °F 88% 29.83 in - SW 11.5 mph - N/A   Clear
4:00 AM 53.6 °F 50.0 °F 88% 29.83 in - SW 10.4 mph - N/A   Clear
4:30 AM 53.6 °F 50.0 °F 88% 29.83 in - SW 9.2 mph - N/A   Clear
5:00 AM 53.6 °F 50.0 °F 88% 29.83 in - SW 8.1 mph - N/A   Clear
5:30 AM 53.6 °F 50.0 °F 88% 29.83 in - SW 5.8 mph - N/A   Clear
6:00 AM 51.8 °F 50.0 °F 94% 29.80 in - SSW 8.1 mph - N/A   Clear
6:30 AM 53.6 °F 50.0 °F 88% 29.80 in - SW 6.9 mph - N/A   Clear
7:00 AM 56 °F 50 °F 75% 29.82 in 25 mi SW 8.9 mph - -   Scattered Clouds
7:00 AM 55.4 °F 50.0 °F 82% 29.80 in - SW 8.1 mph - N/A   Clear
7:30 AM 57.2 °F 50.0 °F 77% 29.80 in 6.2 mi WSW 10.4 mph - N/A   Mostly Cloudy
8:00 AM 57.2 °F 50.0 °F 77% 29.80 in 6.2 mi WSW 10.4 mph - N/A   Mostly Cloudy
8:30 AM 57.2 °F 51.8 °F 82% 29.80 in 6.2 mi WSW 9.2 mph - N/A   Mostly Cloudy
9:00 AM 60.8 °F 51.8 °F 72% 29.80 in 6.2 mi SW 10.4 mph - N/A   Scattered Clouds
9:30 AM 62.6 °F 51.8 °F 68% 29.80 in 6.2 mi SW 12.7 mph - N/A   Partly Cloudy
10:00 AM 62.6 °F 51.8 °F 68% 29.80 in 6.2 mi SW 10.4 mph - N/A   Scattered Clouds
10:30 AM 64.4 °F 51.8 °F 64% 29.80 in 6.2 mi SW 9.2 mph - N/A   Scattered Clouds
11:00 AM 62.6 °F 51.8 °F 68% 29.80 in 6.2 mi WSW 10.4 mph - N/A   Mostly Cloudy
11:30 AM 66.2 °F 51.8 °F 60% 29.80 in 6.2 mi WSW 11.5 mph - N/A   Mostly Cloudy
12:00 PM 66.2 °F 51.8 °F 60% 29.80 in 6.2 mi WSW 12.7 mph - N/A   Mostly Cloudy
12:30 PM 66.2 °F 50.0 °F 56% 29.80 in 6.2 mi WSW 11.5 mph - N/A   Mostly Cloudy
1:00 PM 69 °F 49 °F 38% 29.80 in 37 mi SW 13.4 mph - -   Mostly Cloudy
1:00 PM 68.0 °F 48.2 °F 49% 29.80 in 6.2 mi SW 13.8 mph - N/A   Mostly Cloudy
1:30 PM 69.8 °F 50.0 °F 49% 29.80 in 6.2 mi WSW 13.8 mph - N/A   Mostly Cloudy
2:00 PM 66.2 °F 50.0 °F 56% 29.77 in 6.2 mi WSW 12.7 mph - N/A   Mostly Cloudy
2:30 PM 64.4 °F 50.0 °F 59% 29.80 in 6.2 mi SW 17.3 mph - N/A Rain Light Rain Showers
3:00 PM 68.0 °F 51.8 °F 56% 29.80 in 6.2 mi WSW 11.5 mph - N/A   Scattered Clouds
3:30 PM 68.0 °F 51.8 °F 56% 29.77 in 6.2 mi SW 16.1 mph - N/A   Scattered Clouds
4:00 PM 66.2 °F 53.6 °F 64% 29.80 in 6.2 mi WSW 17.3 mph - N/A   Scattered Clouds
4:30 PM 66.2 °F 55.4 °F 68% 29.80 in 6.2 mi WNW 13.8 mph - N/A   Scattered Clouds
5:00 PM 69.8 °F 55.4 °F 60% 29.77 in 6.2 mi West 13.8 mph - N/A   Scattered Clouds
5:30 PM 68.0 °F 53.6 °F 60% 29.77 in 6.2 mi West 16.1 mph - N/A   Scattered Clouds
6:00 PM 68.0 °F 51.8 °F 56% 29.80 in 6.2 mi West 21.9 mph - N/A   Scattered Clouds
6:30 PM 66.2 °F 51.8 °F 60% 29.80 in 6.2 mi West 20.7 mph - N/A   Scattered Clouds
7:00 PM 64.4 °F 51.8 °F 64% 29.80 in 6.2 mi West 16.1 mph - N/A   Scattered Clouds
7:30 PM 64.4 °F 50.0 °F 59% 29.83 in 6.2 mi West 16.1 mph - N/A   Scattered Clouds
8:00 PM 62.6 °F 50.0 °F 63% 29.83 in 6.2 mi West 15.0 mph - N/A   Mostly Cloudy
8:30 PM 62.6 °F 51.8 °F 68% 29.83 in 6.2 mi West 16.1 mph - N/A   Mostly Cloudy
9:00 PM 60.8 °F 51.8 °F 72% 29.83 in 6.2 mi West 11.5 mph - N/A   Mostly Cloudy
9:30 PM 60.8 °F 50.0 °F 68% 29.86 in 6.2 mi West 12.7 mph - N/A   Mostly Cloudy
10:00 PM 60.8 °F 50.0 °F 68% 29.86 in 6.2 mi West 16.1 mph - N/A   Mostly Cloudy
10:30 PM 59.0 °F 50.0 °F 72% 29.86 in 6.2 mi West 15.0 mph - N/A   Mostly Cloudy
11:00 PM 59.0 °F 50.0 °F 72% 29.86 in 6.2 mi West 15.0 mph - N/A   Mostly Cloudy
11:30 PM 59.0 °F 51.8 °F 77% 29.89 in 6.2 mi West 12.7 mph - N/A   Mostly Cloudy